Carbondale, IL

7:29 AM CST on December 06, 2019 (GMT -0600)
Southern Illinois

Weather History for KMDH - October, 2019

Change the Weather History Date:

Sunday, October 6, 2019

  Actual Average Record
Temperature  
Mean Temperature 62 °F -  
Max Temperature 68 °F 74 °F 91 °F (1916)
Min Temperature 57 °F 47 °F 29 °F (1980)
Degree Days  
Heating Degree Days 4    
Growing Degree Days 12 (Base 50)    
Moisture  
Dew Point 59 °F    
Average Humidity 89    
Maximum Humidity 93    
Minimum Humidity 81    
Precipitation  
Precipitation 0.32 in - - ()
Sea Level Pressure  
Sea Level Pressure 30.11 in    
Wind  
Wind Speed 3 mph (North)    
Max Wind Speed 10 mph    
Max Gust Speed -    
Visibility 8 miles    
Events Rain    
Averages and records for this station are not official NWS values.
T = Trace of Precipitation, MM = Missing Value Source: NWS Daily Summary

Daily Weather History Graph

Daily Weather History Graph

Search for Another Location

Airport or City:

Astronomy

Oct. 06, 2019 Rise Set
Actual Time 6:56 AM CDT 6:32 PM CDT
Civil Twilight 6:30 AM CDT 6:59 PM CDT
Nautical Twilight 6:00 AM CDT 7:29 PM CDT
Astronomical Twilight 5:29 AM CDT 7:59 PM CDT
Moon 3:03 PM CDT 12:03 AM CDT
Length of Visible Light 12h 28m
Length of Day
11h 35m
First Quarter, 60% of the Moon is Illuminated
Oct 6
First Quarter
Oct 13
Full
Oct 21
Last Quarter
Oct 27
New
Nov 4
First Quarter

Hourly Weather History & Observations

Time (CDT) Temp. Dew Point Humidity Pressure Visibility Wind Dir Wind Speed Gust Speed Precip Events Conditions
12:52 AM 60.1 °F 55.0 °F 83% 29.97 in 10.0 mi SSW 3.5 mph - N/A   Clear
1:52 AM 61.0 °F 57.0 °F 87% 29.98 in 10.0 mi Calm Calm - N/A   Overcast
2:52 AM 61.0 °F 55.9 °F 83% 30.00 in 10.0 mi Calm Calm - N/A   Partly Cloudy
3:52 AM 60.1 °F 55.9 °F 86% 30.00 in 10.0 mi Calm Calm - N/A   Clear
4:52 AM 59.0 °F 55.9 °F 90% 30.02 in 10.0 mi Calm Calm - N/A   Scattered Clouds
5:52 AM 61.0 °F 57.9 °F 90% 30.05 in 9.0 mi Calm Calm - N/A   Overcast
6:52 AM 62.1 °F 59.0 °F 90% 30.09 in 10.0 mi South 3.5 mph - N/A   Overcast
7:40 AM 63.0 °F 60.1 °F 90% 30.11 in 9.0 mi Calm Calm - 0.01 in Rain Light Rain
7:52 AM 64.0 °F 61.0 °F 90% 30.10 in 7.0 mi Calm Calm - 0.01 in Rain Light Rain
8:18 AM 64.0 °F 61.0 °F 90% 30.09 in 9.0 mi North 3.5 mph - 0.01 in Rain Light Rain
8:50 AM 66.2 °F 62.6 °F 88% 30.10 in 8.0 mi North 3.5 mph - 0.01 in   Mostly Cloudy
8:52 AM 66.0 °F 62.1 °F 87% 30.10 in 8.0 mi North 3.5 mph - 0.01 in   Mostly Cloudy
9:50 AM 66.2 °F 62.6 °F 88% 30.12 in 10.0 mi NNE 4.6 mph - N/A   Overcast
9:52 AM 66.9 °F 62.1 °F 84% 30.12 in 10.0 mi North 4.6 mph - N/A   Overcast
10:52 AM 66.9 °F 61.0 °F 81% 30.13 in 10.0 mi NNE 6.9 mph - N/A   Overcast
11:52 AM 66.9 °F 61.0 °F 81% 30.14 in 8.0 mi NNW 5.8 mph - 0.00 in Rain Light Rain
12:42 PM 66.0 °F 61.0 °F 84% 30.17 in 1.8 mi West 6.9 mph - 0.05 in Rain Heavy Rain
12:52 PM 64.9 °F 61.0 °F 87% 30.14 in 0.8 mi Calm Calm - 0.17 in Rain Heavy Rain
1:02 PM 64.0 °F 62.1 °F 93% 30.13 in 2.0 mi North 4.6 mph - 0.03 in Rain Rain
1:13 PM 64.0 °F 62.1 °F 93% 30.12 in 5.0 mi North 4.6 mph - 0.04 in Rain Light Rain
1:52 PM 64.9 °F 63.0 °F 93% 30.12 in 9.0 mi North 5.8 mph - 0.06 in Rain Light Rain
2:27 PM 64.9 °F 62.1 °F 90% 30.12 in 6.0 mi North 6.9 mph - 0.02 in Rain Light Rain
2:52 PM 63.0 °F 61.0 °F 93% 30.12 in 5.0 mi North 8.1 mph - 0.04 in Rain Light Rain
3:52 PM 60.1 °F 57.0 °F 90% 30.11 in 10.0 mi NNE 5.8 mph - 0.00 in   Overcast
4:12 PM 60.1 °F 57.0 °F 90% 30.11 in 10.0 mi NNE 6.9 mph - 0.00 in Rain Light Rain
4:32 PM 60.1 °F 57.0 °F 90% 30.11 in 10.0 mi North 10.4 mph - 0.00 in   Overcast
4:52 PM 59.0 °F 55.9 °F 90% 30.12 in 10.0 mi North 9.2 mph - 0.00 in Rain Light Rain
5:05 PM 59.0 °F 55.9 °F 90% 30.14 in 10.0 mi North 6.9 mph - 0.00 in Rain Light Rain
5:32 PM 59.0 °F 55.9 °F 90% 30.14 in 9.0 mi North 3.5 mph - 0.00 in Rain Light Rain
5:52 PM 59.0 °F 55.9 °F 90% 30.13 in 6.0 mi North 5.8 mph - 0.02 in Rain Light Rain
6:52 PM 57.9 °F 55.9 °F 93% 30.15 in 10.0 mi North 3.5 mph - 0.00 in Rain Light Rain
7:52 PM 59.0 °F 55.9 °F 90% 30.17 in 10.0 mi Calm Calm - 0.01 in   Overcast
8:52 PM 59.0 °F 55.9 °F 90% 30.15 in 10.0 mi North 3.5 mph - N/A   Overcast
9:52 PM 59.0 °F 55.9 °F 90% 30.17 in 10.0 mi Calm Calm - N/A   Overcast
10:52 PM 59.0 °F 55.9 °F 90% 30.18 in 10.0 mi North 3.5 mph - N/A   Overcast
11:52 PM 59.0 °F 55.9 °F 90% 30.17 in 10.0 mi Calm Calm - N/A   Overcast